Preview of NWS' New Version of Forecast
This preview is not operational and should not be used for support decisions.

Regional Weather Roundup (RWR)

Issued by National Weather Service (NWS)

                            
000
ASUS43 KLSX 172307
RWRMO 

WEATHER SUMMARY FOR MISSOURI
NATIONAL WEATHER SERVICE SPRINGFIELD MO
600 PM CDT WED APR 17 2019

NOTE: "FAIR" INDICATES FEW OR NO CLOUDS BELOW 12,000 FEET WITH NO
       SIGNIFICANT WEATHER AND/OR OBSTRUCTIONS TO VISIBILITY.
       CURRENT SKY AND/OR WEATHER CONDITIONS ARE NOT AVAILABLE FOR
       CHILLICOTHE AND FARMINGTON.

MOZ001>031-035>038-043-044-053-054-180000-
...NORTHERN AND WESTERN MISSOURI...
  
CITY           SKY/WX    TMP DP  RH WIND       PRES   REMARKS
KANSAS CTY INT CLOUDY    73  59  61 SW9       29.64F                  
KANSAS C DTWN  LGT RAIN  75  59  57 NW5       29.63S                  
LEE'S SUMMIT   CLOUDY    74  60  61 S9        29.64F                  
ST JOSEPH      CLOUDY    70  59  68 NW8G18    29.65R THUNDER          
CHILLICOTHE      N/A     76  59  55 SW9G22    29.63S                  
KIRKSVILLE     CLOUDY    73  60  63 SW14G25   29.63F                  
     
$$
MOZ066>068-077>081-088>096-101>105-180000-
...SOUTHWEST MISSOURI...
  
CITY           SKY/WX    TMP DP  RH WIND       PRES   REMARKS
SPRINGFIELD    CLOUDY    73  61  65 S13       29.73S                  
JOPLIN         CLOUDY    72  62  71 S13       29.70S                  
BRANSON        CLOUDY    72  61  68 S6        29.79R                  
               
$$
MOZ032>034-039>042-045>050-055>058-069>072-180000-
...CENTRAL MISSOURI...  
  
CITY           SKY/WX    TMP DP  RH WIND       PRES   REMARKS
COLUMBIA       PTSUNNY   76  58  53 SW15G24   29.68F                  
JEFFERSON CITY MOSUNNY   78  58  49 S15G23    29.67S                  
ROLLA          SUNNY     74  57  55 SW16      29.73S                  
SEDALIA        CLOUDY    73  60  63 SW15G24   29.68S                  
WHITEMAN AFB   PTSUNNY   75  60  60 SW20G26   29.63R                  
WARRENSBURG    CLOUDY    73  59  60 S17G23    29.66S                  
OSAGE BEACH    CLOUDY    76  60  57 SW18      29.71S                  
               
$$
MOZ051-052-059>065-180000-
...EAST CENTRAL MISSOURI...
  
CITY           SKY/WX    TMP DP  RH WIND       PRES   REMARKS
ST LOUIS INTL  MOSUNNY   81  57  43 S24G31    29.68R                  
SPIRIT OF STL  MOSUNNY   80  58  46 SW18G28   29.67R                  
ST CHARLES     CLOUDY    83  60  45 S20G26    29.65R                  
                   
$$
MOZ072>076-082>087-097>100-106>115-180000-
...SOUTH CENTRAL AND SOUTHEAST MISSOURI...
  
CITY           SKY/WX    TMP DP  RH WIND       PRES   REMARKS
CAPE GIRARDEAU CLOUDY    70  60  70 S16       29.81S                  
FARMINGTON     CLOUDY    70  59  68 SW15G22   29.79R                  
POPLAR BLUFF   CLOUDY    69  63  81 S8        29.82S                  
WEST PLAINS    CLOUDY    68  60  75 S13G24    29.81S                  
                                       
$$